Location: Fours
(44.3167°N, 6.7000°E)
Time: 23:23:02
(UTC+00:00)

Cosmos 1536 Rocket - Pass Details

Date: 16 October 2021
Orbit: 604 x 633 km, 82.5° (Epoch: 26 November)

Event Time Altitude Azimuth Distance (km) Brightness Sun altitude
Rises 17:09:57 0° 351° (N) 2,880 7.0 -4.8°
Reaches altitude 10° 17:12:11 10° 351° (N) 1,968 6.2 -5.2°
Maximum altitude 17:16:32 87° 263° (W) 613 3.6 -6.0°
Drops below altitude 10° 17:20:51 10° 174° (S) 1,946 6.1 -6.8°
Sets 17:23:03 0° 174° (S) 2,845 7.0 -7.2°
